| time (UTC) | temp F | wind direction | speed MPH | gust MPH | rain 1hr in | rain 24hr in | rain mn in | humidity % | barometer mb |
| 20260902082751 | 54 | 103 | 0.0 | 0.0 | 0.00 | 0.00 | 0.00 | 92 | 1017.5 |
| 20260902082515 | 54 | 0.0 | 0.0 | 0.00 | 0.00 | 0.00 | 92 | ||
| 20260902081320 | 54 | 104 | 0.0 | 0.0 | 0.00 | 0.00 | 0.00 | 92 | 1017.5 |
| 20260902080817 | 54 | 0.0 | 0.0 | 0.00 | 0.00 | 0.00 | 92 | ||
| 20260902075752 | 53 | 105 | 0.0 | 0.0 | 0.00 | 0.00 | 0.00 | 92 | 1017.5 |
| 20260902075248 | 54 | 0.0 | 0.0 | 0.00 | 0.00 | 0.00 | 91 | ||
| 20260902074328 | 54 | 104 | 0.0 | 0.0 | 0.00 | 0.00 | 0.00 | 91 | 1017.4 |
| 20260902073824 | 54 | 0.0 | 0.0 | 0.00 | 0.00 | 0.00 | 91 | ||
| 20260902072757 | 54 | 0.0 | 0.0 | 0.00 | 0.00 | 0.00 | 91 | ||
| 20260902072750 | 54 | 105 | 0.0 | 0.0 | 0.00 | 0.00 | 0.00 | 91 | 1017.5 |
| 20260902071324 | 54 | 122 | 0.0 | 0.0 | 0.00 | 0.00 | 0.00 | 91 | 1017.6 |
| 20260902071047 | 55 | 0.0 | 0.0 | 0.00 | 0.00 | 0.00 | 90 | ||
| 20260902070121 | 55 | 125 | 0.0 | 0.0 | 0.00 | 0.00 | 0.00 | 90 | 1017.7 |
| 20260902065342 | 56 | 0.0 | 0.0 | 0.00 | 0.00 | 0.00 | 90 | ||
| 20260902064306 | 56 | 125 | 0.0 | 0.0 | 0.00 | 0.00 | 0.00 | 90 | 1017.6 |
| 20260902063748 | 56 | 0.0 | 0.0 | 0.00 | 0.00 | 0.00 | 90 | ||
| 20260902062717 | 56 | 125 | 0.0 | 0.0 | 0.00 | 0.00 | 0.00 | 90 | 1017.7 |
| 20260902062217 | 57 | 125 | 0.0 | 0.0 | 0.00 | 0.00 | 0.00 | 90 | 1017.7 |
| 20260902061318 | 57 | 125 | 0.0 | 0.0 | 0.00 | 0.00 | 0.00 | 90 | 1017.8 |
| 20260902060803 | 57 | 0.0 | 0.0 | 0.00 | 0.00 | 0.00 | 90 | ||
| 20260902055838 | 57 | 125 | 0.0 | 0.0 | 0.00 | 0.00 | 0.00 | 90 | 1017.8 |
| 20260902055326 | 57 | 0.0 | 0.0 | 0.00 | 0.00 | 0.00 | 90 | ||
| 20260902054301 | 57 | 125 | 0.0 | 0.0 | 0.00 | 0.00 | 0.00 | 89 | 1017.8 |
| 20260902053752 | 58 | 0.0 | 0.0 | 0.00 | 0.00 | 0.00 | 89 | ||
| 20260902052828 | 58 | 125 | 0.0 | 0.0 | 0.00 | 0.00 | 0.00 | 89 | 1018.1 |
| 20260902052306 | 58 | 0.0 | 0.0 | 0.00 | 0.00 | 0.00 | 89 | ||
| 20260902051034 | 58 | 125 | 0.0 | 0.0 | 0.00 | 0.00 | 0.00 | 89 | 1018.2 |
| 20260902050519 | 58 | 0.0 | 0.0 | 0.00 | 0.00 | 0.00 | 89 | ||
| 20260902045931 | 58 | 125 | 0.0 | 0.0 | 0.00 | 0.00 | 0.00 | 89 | 1018.3 |
| 20260902044357 | 58 | 125 | 0.0 | 0.0 | 0.00 | 0.00 | 0.00 | 88 | 1018.4 |
| 20260902043852 | 58 | 0.0 | 0.0 | 0.00 | 0.00 | 0.00 | 88 | ||
| 20260902042525 | 58 | 0.0 | 0.0 | 0.00 | 0.00 | 0.00 | 87 | ||
| 20260902041759 | 59 | 125 | 0.0 | 0.0 | 0.00 | 0.00 | 0.00 | 87 | 1018.3 |
| 20260902040748 | 59 | 0.0 | 0.0 | 0.00 | 0.00 | 0.00 | 87 | ||
| 20260902035814 | 59 | 125 | 0.0 | 0.0 | 0.00 | 0.00 | 0.00 | 87 | 1018.3 |
| 20260902035307 | 59 | 0.0 | 0.0 | 0.00 | 0.00 | 0.00 | 87 | ||
| 20260902033736 | 60 | 125 | 0.0 | 0.0 | 0.00 | 0.00 | 0.00 | 87 | 1018.4 |
| 20260902032824 | 60 | 125 | 0.0 | 0.0 | 0.00 | 0.00 | 0.00 | 87 | 1018.3 |
| 20260902032318 | 60 | 0.0 | 0.0 | 0.00 | 0.00 | 0.00 | 87 | ||
| 20260902031253 | 60 | 125 | 0.0 | 0.0 | 0.00 | 0.00 | 0.00 | 87 | 1018.4 |
| 20260902030803 | 60 | 0.0 | 0.0 | 0.00 | 0.00 | 0.00 | 88 | ||
| 20260902030000 | 60 | 135 | 0.0 | 0.0 | 0.00 | 0.00 | 0.07 | 89 | 1018.6 |
| 20260902025230 | 60 | 120 | 0.0 | 0.0 | 0.00 | 0.00 | 0.07 | 89 | 1018.6 |
| 20260902024323 | 60 | 120 | 0.0 | 0.0 | 0.00 | 0.00 | 0.07 | 89 | 1018.5 |
| 20260902023812 | 60 | 0.0 | 0.0 | 0.00 | 0.00 | 0.07 | 90 | ||
| 20260902022847 | 60 | 120 | 0.0 | 0.0 | 0.00 | 0.00 | 0.07 | 90 | 1018.6 |
| 20260902022330 | 60 | 0.0 | 0.0 | 0.00 | 0.00 | 0.07 | 90 | ||
| 20260902021305 | 60 | 120 | 0.0 | 0.0 | 0.00 | 0.00 | 0.07 | 90 | 1018.6 |
| 20260902020751 | 60 | 0.0 | 0.0 | 0.00 | 0.00 | 0.07 | 90 | ||
| 20260902015836 | 60 | 120 | 0.0 | 0.0 | 0.00 | 0.00 | 0.07 | 90 | 1018.3 |
| 20260902015326 | 60 | 0.0 | 0.0 | 0.00 | 0.00 | 0.07 | 90 | ||
| 20260902014259 | 60 | 154 | 0.0 | 0.0 | 0.00 | 0.00 | 0.07 | 90 | 1018.3 |
| 20260902013749 | 60 | 0.0 | 0.0 | 0.00 | 0.00 | 0.07 | 91 | ||
| 20260902012309 | 60 | 0.0 | 0.0 | 0.00 | 0.00 | 0.07 | 91 | ||
| 20260902011338 | 60 | 119 | 0.0 | 0.0 | 0.00 | 0.00 | 0.07 | 91 | 1018.1 |
| 20260902011330 | 60 | 0.0 | 0.0 | 0.00 | 0.00 | 0.07 | 90 | ||
| 20260902005801 | 60 | 119 | 0.0 | 0.0 | 0.00 | 0.00 | 0.07 | 90 | 1017.8 |
| 20260902005513 | 60 | 119 | 0.0 | 0.0 | 0.00 | 0.00 | 0.07 | 90 | 1017.7 |
| 20260902004352 | 60 | 119 | 0.0 | 0.0 | 0.00 | 0.00 | 0.07 | 90 | 1017.6 |
| 20260902003850 | 61 | 119 | 0.0 | 0.0 | 0.00 | 0.00 | 0.07 | 90 | 1017.5 |
| 20260902002926 | 61 | 119 | 0.0 | 0.0 | 0.00 | 0.00 | 0.07 | 90 | 1017.4 |
| 20260902002427 | 61 | 0.0 | 0.0 | 0.00 | 0.00 | 0.07 | 90 | ||
| 20260902001614 | 61 | 119 | 0.0 | 0.0 | 0.00 | 0.00 | 0.07 | 90 | 1017.2 |
| 20260902000840 | 62 | 0.0 | 0.0 | 0.00 | 0.00 | 0.07 | 89 | ||
| 20260901235811 | 62 | 0.0 | 0.0 | 0.00 | 0.00 | 0.07 | 89 | ||
| 20260901235804 | 62 | 119 | 0.0 | 0.0 | 0.00 | 0.00 | 0.07 | 89 | 1017.1 |
| 20260901234258 | 62 | 119 | 0.0 | 0.0 | 0.00 | 0.00 | 0.07 | 89 | 1017.0 |
| 20260901233759 | 63 | 0.0 | 0.0 | 0.00 | 0.00 | 0.07 | 88 | ||
| 20260901232324 | 63 | 0.0 | 0.0 | 0.00 | 0.00 | 0.07 | 88 | ||
| 20260901231504 | 63 | 119 | 0.0 | 0.0 | 0.00 | 0.00 | 0.07 | 88 | 1016.6 |
| 20260901230731 | 64 | 0.0 | 0.0 | 0.00 | 0.00 | 0.07 | 87 | ||
| 20260901225830 | 64 | 122 | 0.0 | 0.0 | 0.00 | 0.00 | 0.07 | 87 | 1016.4 |
| 20260901225330 | 64 | 0.0 | 0.0 | 0.00 | 0.00 | 0.07 | 86 | ||
| 20260901224304 | 64 | 122 | 0.0 | 0.0 | 0.00 | 0.00 | 0.07 | 86 | 1016.1 |
| 20260901222823 | 65 | 124 | 0.0 | 0.0 | 0.00 | 0.00 | 0.07 | 84 | 1015.9 |
| 20260901222322 | 66 | 0.0 | 0.0 | 0.00 | 0.00 | 0.07 | 84 | ||
| 20260901221351 | 66 | 126 | 0.0 | 0.0 | 0.00 | 0.00 | 0.07 | 83 | 1015.8 |
| 20260901220837 | 66 | 0.0 | 0.0 | 0.00 | 0.00 | 0.07 | 81 | ||
| 20260901215828 | 66 | 109 | 0.0 | 1.0 | 0.00 | 0.00 | 0.07 | 81 | 1015.7 |
| 20260901215326 | 67 | 0.0 | 0.0 | 0.00 | 0.00 | 0.07 | 81 | ||
| 20260901214254 | 67 | 167 | 0.0 | 1.0 | 0.00 | 0.00 | 0.07 | 81 | 1015.7 |
| 20260901213749 | 67 | 0.0 | 0.0 | 0.00 | 0.00 | 0.07 | 80 | ||
| 20260901212832 | 67 | 143 | 0.0 | 1.0 | 0.00 | 0.00 | 0.07 | 80 | 1015.4 |
| 20260901212326 | 68 | 0.0 | 0.0 | 0.00 | 0.00 | 0.07 | 78 | ||
| 20260901211310 | 68 | 132 | 0.0 | 0.0 | 0.00 | 0.00 | 0.07 | 78 | 1015.2 |
| 20260901210757 | 69 | 0.0 | 0.0 | 0.00 | 0.00 | 0.07 | 77 | ||
| 20260901205835 | 69 | 145 | 0.0 | 1.0 | 0.00 | 0.00 | 0.07 | 76 | 1015.0 |
| 20260901205604 | 69 | 0.0 | 0.0 | 0.00 | 0.00 | 0.07 | 74 | ||
| 20260901204600 | 69 | 137 | 0.0 | 1.0 | 0.00 | 0.00 | 0.07 | 74 | 1014.8 |
| 20260901203828 | 70 | 0.0 | 0.0 | 0.00 | 0.00 | 0.07 | 73 | ||
| 20260901202535 | 70 | 144 | 0.0 | 1.0 | 0.00 | 0.00 | 0.07 | 73 | 1014.7 |
| 20260901202019 | 70 | 0.0 | 2.0 | 0.00 | 0.00 | 0.07 | 73 | ||
| 20260901201607 | 70 | 202 | 0.0 | 2.0 | 0.00 | 0.00 | 0.07 | 73 | 1014.5 |
| 20260901200812 | 71 | 0.0 | 0.0 | 0.00 | 0.00 | 0.07 | 75 | ||
| 20260901195847 | 71 | 155 | 0.0 | 1.0 | 0.00 | 0.00 | 0.07 | 75 | 1014.3 |
| 20260901195337 | 71 | 0.0 | 0.0 | 0.00 | 0.00 | 0.07 | 74 | ||
| 20260901194509 | 71 | 124 | 1.0 | 7.0 | 0.00 | 0.00 | 0.07 | 74 | 1014.0 |
| 20260901194006 | 71 | 222 | 0.0 | 3.0 | 0.00 | 0.00 | 0.07 | 74 | 1014.0 |
| 20260901193507 | 71 | 211 | 0.0 | 3.0 | 0.00 | 0.00 | 0.07 | 73 | 1013.9 |
| 20260901192957 | 71 | 198 | 1.0 | 2.0 | 0.00 | 0.00 | 0.07 | 72 | 1013.8 |
| 20260901192439 | 71 | 0.0 | 0.0 | 0.00 | 0.00 | 0.07 | 72 | ||
| 20260901191406 | 71 | 206 | 1.0 | 8.0 | 0.00 | 0.00 | 0.07 | 72 | 1013.6 |
| 20260901190859 | 72 | 120 | 1.0 | 10.0 | 0.00 | 0.00 | 0.07 | 71 | 1013.6 |
| 20260901190347 | 72 | 185 | 1.0 | 10.0 | 0.00 | 0.00 | 0.07 | 70 | 1013.6 |
| 20260901185845 | 73 | 199 | 3.0 | 10.0 | 0.00 | 0.00 | 0.07 | 70 | 1013.4 |
| 20260901185338 | 72 | 227 | 3.0 | 10.0 | 0.00 | 0.00 | 0.07 | 69 | 1013.4 |
| 20260901184830 | 73 | 226 | 1.0 | 3.0 | 0.00 | 0.00 | 0.07 | 68 | 1013.2 |
| 20260901184322 | 73 | 185 | 6.0 | 1.0 | 0.00 | 0.00 | 0.07 | 68 | 1013.2 |
| 20260901183809 | 72 | 0.0 | 0.0 | 0.00 | 0.00 | 0.07 | 69 | ||
| 20260901183109 | 72 | 216 | 8.0 | 13.0 | 0.00 | 0.00 | 0.07 | 70 | 1013.2 |
| 20260901182337 | 72 | 0.0 | 0.0 | 0.00 | 0.00 | 0.07 | 68 | ||
| 20260901181534 | 73 | 224 | 4.0 | 14.0 | 0.00 | 0.00 | 0.07 | 67 | 1013.1 |
| 20260901180758 | 73 | 0.0 | 0.0 | 0.00 | 0.00 | 0.07 | 70 | ||
| 20260901175829 | 73 | 208 | 4.0 | 6.0 | 0.00 | 0.00 | 0.07 | 69 | 1013.0 |
| 20260901175305 | 72 | 0.0 | 0.0 | 0.00 | 0.00 | 0.07 | 69 | ||
| 20260901174336 | 72 | 208 | 5.0 | 10.0 | 0.00 | 0.00 | 0.07 | 69 | 1013.1 |
| 20260901173831 | 72 | 0.0 | 0.0 | 0.00 | 0.00 | 0.07 | 74 | ||
| 20260901172801 | 71 | 222 | 5.0 | 13.0 | 0.00 | 0.00 | 0.07 | 73 | 1013.2 |
| 20260901172304 | 71 | 215 | 3.0 | 5.0 | 0.00 | 0.00 | 0.07 | 76 | 1013.1 |
| 20260901171344 | 71 | 220 | 2.0 | 9.0 | 0.00 | 0.00 | 0.07 | 78 | 1013.1 |
| 20260901170831 | 70 | 0.0 | 0.0 | 0.00 | 0.00 | 0.07 | 78 | ||
| 20260901170256 | 69 | 0.0 | 0.0 | 0.00 | 0.00 | 0.07 | 82 | ||
| 20260901170129 | 70 | 228 | 2.0 | 7.0 | 0.00 | 0.00 | 0.07 | 78 | 1013.2 |
| 20260901164551 | 69 | 233 | 2.0 | 8.0 | 0.00 | 0.00 | 0.07 | 82 | 1013.4 |
| 20260901163808 | 69 | 0.0 | 0.0 | 0.00 | 0.00 | 0.07 | 83 | ||
| 20260901162838 | 68 | 243 | 2.0 | 9.0 | 0.00 | 0.00 | 0.07 | 83 | 1013.5 |
| 20260901162324 | 67 | 0.0 | 0.0 | 0.00 | 0.00 | 0.07 | 87 | ||
| 20260901161525 | 67 | 293 | 0.0 | 1.0 | 0.00 | 0.00 | 0.07 | 88 | 1013.5 |
| 20260901160741 | 66 | 0.0 | 0.0 | 0.00 | 0.00 | 0.07 | 89 | ||
| 20260901155538 | 66 | 239 | 0.0 | 1.0 | 0.02 | 0.02 | 0.07 | 89 | 1013.6 |
| 20260901155036 | 66 | 0.0 | 0.0 | 0.02 | 0.02 | 0.07 | 88 | ||
| 20260901154356 | 66 | 222 | 0.0 | 0.0 | 0.02 | 0.02 | 0.07 | 88 | 1013.5 |
| 20260901153855 | 67 | 0.0 | 0.0 | 0.00 | 0.00 | 0.06 | 85 | ||
| 20260901153020 | 67 | 193 | 0.0 | 1.0 | 0.00 | 0.00 | 0.06 | 84 | 1013.5 |
| 20260901152230 | 67 | 0.0 | 0.0 | 0.00 | 0.00 | 0.06 | 83 | ||
| 20260901151226 | 67 | 149 | 1.0 | 8.0 | 0.00 | 0.00 | 0.06 | 83 | 1013.6 |
| 20260901151001 | 68 | 219 | 2.0 | 0.0 | 0.00 | 0.00 | 0.06 | 86 | 1013.6 |
| 20260901145821 | 68 | 212 | 1.0 | 9.0 | 0.00 | 0.00 | 0.06 | 87 | 1013.9 |
| 20260901145320 | 67 | 0.0 | 0.0 | 0.00 | 0.00 | 0.06 | 86 | ||
| 20260901144345 | 67 | 224 | 2.0 | 9.0 | 0.00 | 0.00 | 0.06 | 86 | 1013.5 |
| 20260901143833 | 68 | 0.0 | 0.0 | 0.00 | 0.00 | 0.06 | 85 | ||
| 20260901142826 | 68 | 221 | 1.0 | 4.0 | 0.00 | 0.00 | 0.06 | 86 | 1013.4 |
| 20260901142326 | 67 | 0.0 | 0.0 | 0.00 | 0.00 | 0.06 | 88 | ||
| 20260901141523 | 67 | 217 | 2.0 | 3.0 | 0.00 | 0.00 | 0.06 | 88 | 1013.5 |
| 20260901141021 | 66 | 0.0 | 0.0 | 0.00 | 0.00 | 0.06 | 90 | ||
| 20260901135830 | 66 | 208 | 3.0 | 9.0 | 0.00 | 0.00 | 0.06 | 90 | 1013.5 |
| 20260901135600 | 66 | 0.0 | 0.0 | 0.00 | 0.00 | 0.06 | 92 | ||
| 20260901134316 | 66 | 256 | 1.0 | 5.0 | 0.00 | 0.00 | 0.06 | 93 | 1013.4 |
| 20260901133815 | 65 | 0.0 | 0.0 | 0.00 | 0.00 | 0.06 | 93 | ||
| 20260901132757 | 64 | 235 | 1.0 | 2.0 | 0.00 | 0.00 | 0.06 | 93 | 1013.3 |
| 20260901132257 | 64 | 0.0 | 0.0 | 0.00 | 0.00 | 0.06 | 94 | ||
| 20260901131335 | 64 | 180 | 0.0 | 1.0 | 0.00 | 0.00 | 0.06 | 94 | 1013.3 |
| 20260901130829 | 64 | 0.0 | 0.0 | 0.00 | 0.00 | 0.06 | 94 | ||
| 20260901125803 | 64 | 202 | 1.0 | 1.0 | 0.00 | 0.00 | 0.06 | 94 | 1013.3 |
| 20260901125249 | 63 | 0.0 | 0.0 | 0.00 | 0.00 | 0.06 | 94 | ||
| 20260901124327 | 64 | 175 | 0.0 | 1.0 | 0.00 | 0.00 | 0.06 | 94 | 1013.2 |
| 20260901123818 | 63 | 0.0 | 0.0 | 0.00 | 0.00 | 0.06 | 94 | ||
| 20260901122758 | 63 | 193 | 1.0 | 3.0 | 0.00 | 0.00 | 0.06 | 94 | 1013.1 |
| 20260901122248 | 63 | 0.0 | 0.0 | 0.00 | 0.00 | 0.06 | 94 | ||
| 20260901121029 | 63 | 233 | 1.0 | 4.0 | 0.00 | 0.00 | 0.06 | 94 | 1012.9 |
| 20260901120513 | 63 | 0.0 | 3.0 | 0.00 | 0.00 | 0.06 | 94 | ||
| 20260901120104 | 63 | 216 | 1.0 | 4.0 | 0.00 | 0.00 | 0.06 | 94 | 1012.8 |
| 20260901115554 | 62 | 0.0 | 0.0 | 0.00 | 0.00 | 0.06 | 94 | ||
| 20260901114258 | 62 | 233 | 1.0 | 2.0 | 0.01 | 0.01 | 0.06 | 94 | 1012.7 |
| 20260901113757 | 62 | 0.0 | 0.0 | 0.00 | 0.00 | 0.04 | 94 | ||
| 20260901113100 | 62 | 222 | 0.0 | 2.0 | 0.03 | 0.03 | 0.04 | 94 | 1012.5 |
| 20260901111307 | 62 | 236 | 1.0 | 2.0 | 0.00 | 0.00 | 0.02 | 94 | 1012.3 |
| 20260901110802 | 62 | 228 | 1.0 | 1.0 | 0.00 | 0.00 | 0.02 | 94 | 1012.2 |
| 20260901105758 | 62 | 230 | 0.0 | 2.0 | 0.00 | 0.00 | 0.02 | 94 | 1012.0 |
| 20260901105252 | 62 | 0.0 | 0.0 | 0.00 | 0.00 | 0.02 | 94 | ||
| 20260901104333 | 62 | 228 | 0.0 | 0.0 | 0.00 | 0.00 | 0.02 | 94 | 1011.8 |
| 20260901103826 | 62 | 0.0 | 0.0 | 0.00 | 0.00 | 0.02 | 94 | ||
| 20260901103017 | 62 | 228 | 0.0 | 0.0 | 0.00 | 0.00 | 0.02 | 94 | 1011.3 |
| 20260901102240 | 62 | 0.0 | 0.0 | 0.00 | 0.00 | 0.02 | 94 | ||
| 20260901101459 | 62 | 228 | 0.0 | 0.0 | 0.00 | 0.00 | 0.02 | 94 | 1011.3 |
| 20260901100727 | 62 | 228 | 0.0 | 0.0 | 0.00 | 0.00 | 0.02 | 94 | 1011.0 |
| 20260901100036 | 62 | 228 | 0.0 | 0.0 | 0.00 | 0.00 | 0.02 | 94 | 1011.0 |
| 20260901095306 | 62 | 0.0 | 0.0 | 0.00 | 0.00 | 0.02 | 94 | ||
| 20260901094339 | 62 | 228 | 0.0 | 0.0 | 0.02 | 0.02 | 0.02 | 94 | 1011.0 |
| 20260901094057 | 62 | 0.0 | 0.0 | 0.00 | 0.00 | 0.00 | 94 | ||
| 20260901092758 | 62 | 228 | 0.0 | 0.0 | 0.00 | 0.00 | 0.00 | 94 | 1010.8 |
| 20260901092247 | 62 | 0.0 | 0.0 | 0.00 | 0.00 | 0.00 | 94 | ||
| 20260901090804 | 62 | 0.0 | 0.0 | 0.00 | 0.00 | 0.00 | 94 | ||
| 20260901085836 | 62 | 228 | 0.0 | 0.0 | 0.00 | 0.00 | 0.00 | 94 | 1010.3 |
| 20260901085327 | 62 | 0.0 | 0.0 | 0.00 | 0.00 | 0.00 | 94 | ||
| 20260901084302 | 62 | 228 | 0.0 | 0.0 | 0.00 | 0.00 | 0.00 | 94 | 1010.4 |
| 20260901083746 | 62 | 0.0 | 0.0 | 0.00 | 0.00 | 0.00 | 94 |